This demonstration page uses our WeatherBlox Daily Observations layout. Learn more.

Left ArrowRight Arrow

38.20091, -84.87328

Hourly Observations for July 12, 2021

Temp ( °F °C ) Dew Point ( °F °C ) Humidity (%) Winds ( mph kmh ) Pressure ( in mb ) Visibility ( mi km ) Precip ( " mm )
12:53 am 00:53 Clear 73 22.8 71 21.7 94 94 S 3 6 29.96 1014 10 16 0.00 0.00
1:53 am 01:53 Clear 73 22.8 70 21.1 90 90 S 5 7 29.95 1014 10 16 0.00 0.00
2:27 am 02:27 Mostly Cloudy 73 22.8 71 21.7 94 94 SSW 6 9 29.95 1014 10 16 0.00 0.00
2:36 am 02:36 Mostly Cloudy 73 22.8 71 21.7 94 94 S 5 7 29.95 1014 10 16 0.00 0.00
2:53 am 02:53 Partly Cloudy 73 22.8 71 21.7 94 94 S 5 7 29.96 1015 10 16 0.00 0.00
3:53 am 03:53 Mostly Cloudy 73 22.8 71 21.7 94 94 S 5 7 29.98 1015 10 16 0.00 0.00
4:14 am 04:14 Cloudy 73 22.8 71 21.7 94 94 SSE 6 9 29.97 1015 10 16 0.00 0.00
4:53 am 04:53 Cloudy 73 22.8 71 21.7 94 94 S 8 13 29.98 1015 10 16 0.00 0.00
5:53 am 05:53 Mostly Cloudy 73 22.8 71 21.7 94 94 SW 8 13 29.99 1016 10 16 0.00 0.00
6:03 am 06:03 Partly Cloudy 73 22.8 71 21.7 94 94 SW 6 9 29.99 1016 10 16 0.00 0.00
6:23 am 06:23 Mostly Cloudy 73 22.8 71 21.7 94 94 S 5 7 29.99 1016 10 16 0.00 0.00
6:53 am 06:53 Mostly Cloudy 73 22.8 71 21.7 94 94 S 6 9 30.00 1016 10 16 0.00 0.00
7:25 am 07:25 Mostly Cloudy 73 22.8 71 21.7 94 94 S 7 11 30.00 1016 10 16 0.00 0.00
7:53 am 07:53 Mostly Cloudy 74 23.3 71 21.7 91 91 S 7 11 30.02 1017 10 16 0.00 0.00
8:15 am 08:15 Cloudy 74 23.3 71 21.7 91 91 S 9 15 30.02 1017 10 16 0.00 0.00
8:53 am 08:53 Cloudy 75 23.9 71 21.7 88 88 S 9 15 30.03 1017 10 16 0.00 0.00
9:36 am 09:36 Mostly Cloudy 77 25 71 21.7 82 82 S 9 15 30.04 1017 10 16 0.00 0.00
9:53 am 09:53 Cloudy 77 25 71 21.7 82 82 S 9 15 30.05 1018 10 16 0.00 0.00
10:53 am 10:53 Cloudy 77 25 71 21.7 82 82 SSW 13 20 30.06 1018 10 16 0.00 0.00
11:28 am 11:28 Cloudy 78 25.6 72 22.2 82 82 S 13 20 30.06 1018 10 16 0.00 0.00
11:53 am 11:53 Partly Cloudy 78 25.6 71 21.7 79 79 S 16 26 30.06 1018 10 16 0.00 0.00
12:26 pm 12:26 Cloudy 79 26.1 71 21.7 77 77 SSW 12 19 30.06 1018 10 16 0.00 0.00
12:53 pm 12:53 Mostly Cloudy 80 26.7 72 22.2 76 76 SSW 12 19 30.07 1018 10 16 0.00 0.00
1:11 pm 13:11 Partly Cloudy 81 27.2 72 22.2 74 74 SSW 9 15 30.05 1018 10 16 0.00 0.00
1:31 pm 13:31 Mostly Cloudy 80 26.7 71 21.7 74 74 S 13 20 30.05 1018 10 16 0.00 0.00
1:53 pm 13:53 Mostly Cloudy 82 27.8 73 22.8 74 74 S 10 17 30.06 1018 10 16 0.00 0.00
2:53 pm 14:53 Mostly Sunny 82 27.8 71 21.7 69 69 SSW 15 24 30.04 1017 10 16 0.00 0.00
3:53 pm 15:53 Mostly Cloudy 84 28.9 72 22.2 67 67 SSE 13 20 30.03 1017 10 16 0.00 0.00
4:53 pm 16:53 Mostly Sunny 85 29.4 70 21.1 61 61 S 12 19 30.02 1017 10 16 0.00 0.00
5:53 pm 17:53 Mostly Cloudy 83 28.3 71 21.7 67 67 S 10 17 30.01 1016 10 16 0.00 0.00
6:53 pm 18:53 Mostly Sunny 83 28.3 71 21.7 67 67 S 9 15 30.01 1016 10 16 0.00 0.00
7:53 pm 19:53 Sunny 81 27.2 70 21.1 69 69 S 7 11 30.01 1016 10 16 0.00 0.00
8:53 pm 20:53 Partly Cloudy 80 26.7 70 21.1 71 71 S 5 7 30.02 1017 10 16 0.00 0.00
9:53 pm 21:53 Partly Cloudy 79 26.1 70 21.1 74 74 S 7 11 30.04 1017 10 16 0.00 0.00
10:53 pm 22:53 Mostly Cloudy 77 25 70 21.1 79 79 S 13 20 30.06 1018 10 16 0.00 0.00
11:53 pm 23:53 Mostly Clear 75 23.9 71 21.7 88 88 S 7 11 30.06 1018 10 16 0.00 0.00

Powered by AerisWeather